Flag for Papua New Guinea Weather past 2 weeks in Port Moresby, Papua New Guinea

Now
75 °F

Passing clouds.


Feels Like: 77 °F
Forecast: 73 / 84 °F
Wind: 12 mph from Southeast

Location: Moresby

Current Time: Sep 30, 2014 at 11:43:59 PM

Latest Report: Sep 30, 2014 at 11:00 PM


Visibility: N/A

Pressure: 29.89 "Hg

Humidity: 69%

Dew point: 64 °F

Location of Port MoresbyLocation

Historic Weather in Port Moresby — Graph

°F

Port Moresby temperature yesterday

Maximum temperature yesterday: 86 °F (at 12:00 PM)
Minimum temperature yesterday: 75 °F (at 9:00 PM)
Average temperature yesterday: 81 °F

Past Weeks' High & Low Weather Summary

 TemperatureHumidityPressure
High88 °F (Sep 24, 12:00 PM)100% (Sep 25, 2:00 AM)29.92 "Hg (Sep 25, 2:00 AM)
Low70 °F (Sep 30, 6:00 AM)40% (Sep 30, 10:01 AM)29.74 "Hg (Sep 23, 3:00 PM)
Average79 °F79%29.83 "Hg
* Reported Sep 22 12:00 Noon — Sep 30 10:00 PM, Port Moresby, Weather by CustomWeather, © 2014

Note: Actual official high and low records may vary slightly from our data, if they occured in-between our weather recording intervals... More about our weather records

Advertising

Port Moresby weather history for previous 24 hours

 ConditionsComfort  
Time TempWeatherWind HumidityBarometerVisibility
10:00 PM
Sep 30
75 °FPassing clouds.14 mph74%29.89 "HgN/A
9:00 PM75 °FPassing clouds.9 mph83%29.89 "HgN/A
8:00 PM77 °FPassing clouds.14 mph74%29.86 "HgN/A
7:00 PM77 °FPartly cloudy.18 mph74%29.86 "HgN/A
6:00 PM77 °FBroken clouds.14 mph74%29.83 "HgN/A
5:00 PM79 °FPartly sunny.14 mph70%29.83 "HgN/A
4:00 PM82 °FPartly sunny.16 mph62%29.80 "HgN/A
3:00 PM84 °FBroken clouds.14 mph100%29.80 "HgN/A
2:00 PM84 °FPartly sunny.14 mph55%29.80 "HgN/A
1:00 PM86 °FBroken clouds.14 mph49%29.83 "HgN/A
12:00 PM84 °FBroken clouds.12 mph48%29.86 "HgN/A
11:00 AM82 °FBroken clouds.14 mph42%29.89 "HgN/A
10:01 AM82 °FBroken clouds.12 mph40%29.89 "HgN/A
9:00 AM82 °FBroken clouds.10 mph45%29.89 "HgN/A
8:00 AM79 °FPartly sunny.6 mph54%29.89 "HgN/A
7:00 AM72 °FPartly sunny.No wind69%29.89 "HgN/A
6:00 AM70 °FScattered clouds.No wind73%29.86 "HgN/A
5:00 AM72 °FPartly cloudy.No wind73%29.86 "HgN/A
4:00 AM73 °FPartly cloudy.No wind65%29.83 "HgN/A
3:00 AM73 °FPartly cloudy.No wind69%29.83 "HgN/A
2:00 AM73 °FPassing clouds.No wind69%29.83 "HgN/A
1:00 AM72 °FPassing clouds.No wind78%29.86 "HgN/A
12:00 AM72 °FPassing clouds.2 mph78%29.86 "HgN/A
Weather by CustomWeather, © 2014

See weather overviewHow to use our weather pages